Overview Statistics Trail Chart Weather Telemetry Raw packets
 

This is the latest recevied weather packets stored in our database for station/object K5BOU. If no packets are shown the sender has not sent any weather packets the latest 10 day(s).

<< 88 89 90 91 92 93 94 >>
Time Temp. Humidity Pressure Rain* Wind** Luminosity Snow
1788013386 28.33° C 94% 1016.4 hPa 0 mm - 293 W/m² -
1788013086 28.33° C 92% 1016.6 hPa 0 mm - 265 W/m² -
1788012786 28.33° C 91% 1016.7 hPa 0 mm - 260 W/m² -
1788012481 28.33° C 92% 1016.4 hPa 0 mm - 255 W/m² -
1788012180 28.89° C 90% 1016.5 hPa 0 mm - 229 W/m² -
1788011879 28.89° C 89% 1016.6 hPa 0 mm - 79 W/m² -
1788011578 28.33° C 90% 1016.6 hPa 0 mm - 68 W/m² -
1788011274 27.78° C 94% 1016.5 hPa 0 mm - 66 W/m² -
1788010973 26.67° C 99% 1016.5 hPa 0 mm - 64 W/m² -
1788010668 26.11° C 99% 1016.6 hPa 0 mm - 60 W/m² -
1788010367 25° C 99% 1016.5 hPa 0 mm - 58 W/m² -
1788010061 25° C 99% 1016.5 hPa 0 mm - 58 W/m² -
1788009756 24.44° C 99% 1016.3 hPa 0 mm - 78 W/m² -
1788009454 25° C 99% 1016.5 hPa 0 mm - 62 W/m² -
1788009149 24.44° C 99% 1016.6 hPa 0 mm - 60 W/m² -
1788008844 24.44° C 99% 1016.2 hPa 0 mm - 51 W/m² -
1788008539 24.44° C 99% 1016.4 hPa 0 mm - 48 W/m² -
1788008236 23.89° C 99% 1016.3 hPa 0 mm - 43 W/m² -
1788007935 23.33° C 99% 1016.2 hPa 0 mm - 39 W/m² -
1788007633 23.33° C 99% 1016.4 hPa 0 mm - 35 W/m² -
1788007329 22.78° C 99% 1016.4 hPa 0 mm - 30 W/m² -
1788007023 22.78° C 99% 1016.4 hPa 0 mm - 25 W/m² -
1788006723 22.78° C 99% 1016.3 hPa 0 mm - 22 W/m² -
1788006417 22.78° C 99% 1016.4 hPa 0 mm - 18 W/m² -
1788006117 22.78° C 99% 1016.2 hPa 0 mm - 15 W/m² -

* Rain latest hour (hover to see other rain measurements)
** Current wind speed in m/s (hover to see current wind gust speed)